Location: Drummondville
(45.8830°N, 72.4830°W)
Time: 05:20:35
(UTC-05:00)

OTV 5 (USA 277) - Pass Details

Date: 11 November 2017
Orbit: 404 x 417 km, 43.0° (Epoch: 07 September)

Event Time Altitude Azimuth Distance (km) Brightness Sun altitude
Exits shadow 06:06:18 - 255° (WSW) 1,805 ? -7.1°
Reaches altitude 10° 06:07:10 10° 252° (WSW) 1,455 ? -6.9°
Maximum altitude 06:10:22 50° 176° (S) 523 ? -6.4°
Drops below altitude 10° 06:13:33 10° 100° (E) 1,457 ? -5.9°
Sets 06:15:41 0° 95° (E) 2,318 ? -5.5°
